Regional Weather Roundup
Issued by NWS Memphis, TN

Home | Current Version | Previous Version | Text Only | Print | Product List | Glossary On
Versions: 1 2 3 4 5 6 7 8 9 10 11 12 13 14 15 16 17 18 19 20 21 22 23 24 25 26 27 28 29 30 31 32 33 34 35 36 37 38 39 40 41 42 43 44 45 46 47 48 49 50
000
ASUS44 KMEG 250110
RWRMEG
MEMPHIS CWA HOURLY WEATHER ROUNDUP
NATIONAL WEATHER SERVICE MEMPHIS TN
800 PM CDT TUE MAY 24 2016

...WEST TENNESSEE...

CITY           SKY/WX    TMP DP  RH WIND       PRES   REMARKS
MEMPHIS INTL   CLOUDY    83  64  52 S8        30.04R
NWS MEMPHIS      N/A     82 N/A N/A MISG        N/A
JACKSON        CLOUDY    74  68  81 CALM      30.05S
LEXINGTON      CLEAR     73  66  78 CALM      30.06S
DYERSBURG      CLOUDY    70  64  83 N13       30.06S
UNION CITY     CLEAR     70  68  94 W9        30.06S
PARIS          CLEAR     72  63  73 CALM      30.07R


...EASTERN ARKANSAS...

CITY           SKY/WX    TMP DP  RH WIND       PRES   REMARKS
JONESBORO      LGT RAIN  66  66 100 SE8       30.11S
WEST MEMPHIS   LGT RAIN  71  66  84 N14G24    30.07R
BATESVILLE     CLOUDY    64  63  94 SE8       30.12S
NEWPORT        TSTM      66  66 100 NE7       30.13R
WALNUT RIDGE   CLOUDY    64  61  88 SE13      30.06F THUNDER
BLYTHEVILLE    TSTM      67  66  97 N16       30.11R FOG
SEARCY         TSTM      64  64 100 E9        30.12R
STUTTGART      CLOUDY    84  63  48 N30G40    30.06R
PINE BLUFF     MOCLDY    82  65  56 S5        30.02R
MONTICELLO     PTCLDY    83  65  54 CALM      30.02R


...NORTH MISSISSIPPI...

CITY           SKY/WX    TMP DP  RH WIND       PRES   REMARKS
TUPELO         CLOUDY    81  56  42 SE6       30.06R
OXFORD         CLOUDY    77  63  61 CALM      30.08R
BATESVILLE     PTCLDY    80  64  59 CALM      30.05R
OLIVE BRANCH   CLOUDY    79  64  61 S7        30.05R
TUNICA         PTCLDY    79  63  57 SE5       30.04R
CLARKSDALE     CLEAR     84  61  45 S7        30.03R
CORINTH        CLOUDY    77  63  61 CALM      30.06R
GREENWOOD      CLEAR     78  62  57 S5        30.04R
COLUMBUS       CLEAR     76  63  62 SE8       30.06R
STARKVILLE     PTCLDY    75  61  60 CALM      30.06R
GOLDEN TRIANGL CLEAR     82  59  44 SE7       30.06R


...SOUTHEAST MISSOURI...

CITY           SKY/WX    TMP DP  RH WIND       PRES   REMARKS
KENNETT        RAIN      68  66  94 CALM      30.09S
WEST PLAINS    CLOUDY    63  60  90 S3        30.05R
POPLAR BLUFF   RAIN      67  62  84 SE25G33   29.96F
CAPE GIRARDEAU CLOUDY    68  64  87 S13G21    29.97F


...NORTHWEST ALABAMA...

CITY           SKY/WX    TMP DP  RH WIND       PRES   REMARKS
MUSCLE SHOALS  PTCLDY    78  58  49 CALM      30.09S


...MIDDLE TENNESSEE...

CITY           SKY/WX    TMP DP  RH WIND       PRES   REMARKS
NASHVILLE      PTCLDY    79  54  41 CALM      30.09S
CLARKSVILLE    CLEAR     76  58  53 S3        30.05F
COLUMBIA       CLEAR     73  73 100 SE3       30.08S


...WESTERN KENTUCKY...

CITY           SKY/WX    TMP DP  RH WIND       PRES   REMARKS
PADUCAH        CLOUDY    71  64  78 SW5       30.02F


...CENTRAL ARKANSAS...

CITY           SKY/WX    TMP DP  RH WIND       PRES   REMARKS
LITTLE ROCK    CLOUDY    76  62  62 NE14G30   30.04R


SKY/WX REPORTED AS FAIR MEANS FEW OR NO CLOUDS BELOW
12 THOUSAND FEET.





USA.gov is the U.S. government's official web portal to all federal, state and local government web resources and services.